[[{"header":{"parameterUnit":"m.s-1","parameterCategory":1,"la1":30.2991,"la2":30.254,"lo1":-89.0895,"lo2":-89.0444,"dy":0.0017,"dx":0.0017,"nx":28,"ny":28,"refTime":"2025-06-19T09:00:00:Z","depth":0,"parameterNumber":2,"parameterNumberName":"U-component_of_WINDS"},"data":[0,0,0,0,0,0,0,0,0,0,0,0,0,0,0,0,0,0,0,0,0,0,0,0,0,0,0,0,0,0,0,0,0,0,0,0,0,0,0,0,0,0,0,0,0,0,0,0,0,0,0,0,0,0,0,0,0,0,1.0126,1.0127,0,1.0291,1.0293,1.0295,1.038,1.038,1.038,1.038,1.0555,1.056,1.0564,0,0,0,0,0,0,0,0,0,0,0,0,0,0.989,0.9894,1.0126,1.0128,1.013,1.029,1.0293,1.0295,1.038,1.038,1.038,1.038,1.0554,1.0559,1.0565,0,0,0,0,0,0,0,0,0,0,0,0,0,1.0018,0.9895,1.0125,1.0191,1.0199,1.029,1.0293,1.0296,1.038,1.038,1.038,1.038,1.0552,1.0559,1.0565,1.0606,0,0,1.0586,1.0589,0,0,0,0,0,0,0,0,1.001,1.0026,1.0179,1.0187,1.0195,1.0315,1.0274,1.04,1.0379,1.0311,1.038,1.038,1.0475,1.0489,1.052,1.0614,1.0622,1.0587,1.0591,1.0594,1.0596,0,0,0,0,0,0,0,1.0001,1.002,1.0191,1.0181,1.0191,1.0215,1.0233,1.0298,1.0391,1.0317,1.0324,1.0342,1.048,1.0513,1.0524,1.0624,1.0587,1.0593,1.0597,1.06,1.0762,1.0762,0,0,0,0,0,0,0.9981,1.0012,1.0186,1.0196,1.0101,1.0219,1.0239,1.0276,1.039,1.0408,1.0341,1.0345,1.0501,1.0516,1.0531,1.0586,1.0594,1.0601,1.0605,1.0762,1.0762,1.0762,0,0,0,0,0,0,0.9976,0.9996,1.0179,1.0106,1.0131,1.0223,1.0264,1.0279,1.0312,1.0409,1.0426,1.0357,1.0502,1.0521,1.0586,1.0594,1.0604,1.061,1.0762,1.0762,1.0762,1.0697,0,0,0,0,0,0,0.9969,0.9993,1.0008,1.0105,1.0134,1.023,1.0264,1.0283,1.0323,1.0329,1.0428,1.0445,1.0503,1.0576,1.0593,1.0603,1.0615,1.0761,1.0762,1.0762,1.0699,1.0695,1.0692,0,0,0,0,0,0.996,0.9984,1.0008,1.0029,1.0154,1.023,1.0247,1.0311,1.0323,1.034,1.0402,1.0442,1.059,1.0582,1.0602,1.0614,1.0761,1.0762,1.0762,1.0701,1.0696,1.0692,0,0,0,0,0,0,0.9887,0.9998,1.0026,1.0082,1.0145,1.0244,1.0267,1.0304,1.0367,1.0371,1.0451,1.0472,1.053,1.058,1.0568,1.0661,1.068,1.0684,1.0626,1.0622,1.0619,1.0606,1.0621,0,0,0,0,0,0.9876,0.9926,1.0022,1.0062,1.0093,1.0174,1.0209,1.0254,1.0324,1.0352,1.0419,1.0487,1.0549,1.0589,1.0651,1.0707,1.073,1.0726,1.0722,1.0718,1.0721,1.0756,1.0755,1.0763,1.0763,1.0763,0,0,0.9857,0.9924,0.9951,1.0049,1.0104,1.0156,1.0196,1.0249,1.029,1.0361,1.0426,1.0477,1.0559,1.062,1.065,1.0662,1.0724,1.0719,1.0715,1.072,1.0756,1.0755,1.0754,1.0764,1.0764,1.0764,0,0,0.9848,0.9903,0.9943,0.9997,1.0078,1.0132,1.0142,1.0235,1.0271,1.0338,1.0393,1.0443,1.0548,1.0604,1.0647,1.066,1.07,1.0679,1.0659,1.0692,1.0691,1.0691,1.0697,1.0698,1.0681,1.0681,1.0681,0,0.9814,0.9892,0.9959,1.0009,1.0052,1.0117,1.0159,1.0209,1.0308,1.0337,1.0349,1.0482,1.0542,1.0617,1.062,1.0652,1.0667,1.0667,1.0686,1.0686,1.0687,1.0693,1.0695,1.0678,1.0678,1.0679,1.0679,0,0.9847,0.9901,0.9924,1.0015,1.0061,1.0106,1.0183,1.0221,1.0262,1.0315,1.0383,1.0457,1.0536,1.0557,1.0599,1.0639,1.0644,1.067,1.0691,1.0682,1.0689,1.0692,1.0674,1.0675,1.0676,1.0676,0,0,0.9795,0.9923,0.9931,0.9973,1.0069,1.0113,1.0164,1.0239,1.0271,1.0337,1.0382,1.047,1.0495,1.0543,1.0591,1.062,1.0627,1.0642,1.0646,1.0637,1.0678,1.0657,1.0659,1.0653,1.0654,1.0655,1.0671,0,0.9799,0.989,0.9952,1.0019,1.0071,1.0134,1.0179,1.0243,1.0295,1.0348,1.0407,1.0468,1.0495,1.0525,1.0556,1.0619,1.0636,1.0619,1.0698,1.07,1.0675,1.0663,1.0642,1.0653,1.0674,1.0675,1.0675,0,0.9816,0.9879,0.995,1.0041,1.0065,1.0103,1.0178,1.0228,1.0304,1.034,1.0393,1.0443,1.0501,1.0517,1.0599,1.0586,1.0623,1.0659,1.0661,1.0671,1.0687,1.0673,1.0658,1.066,1.068,1.068,1.0679,0,0.9771,0.9874,0.9931,0.9965,1.0073,1.0098,1.0145,1.022,1.0262,1.0329,1.0357,1.043,1.047,1.0527,1.0595,1.06,1.0671,1.0693,1.0704,1.0702,1.0716,1.0714,1.0707,1.0739,1.0739,1.0739,1.0739,0,0.977,0.9811,0.9912,0.9946,0.9996,1.0068,1.0116,1.0168,1.0235,1.0283,1.0343,1.0387,1.0475,1.053,1.0585,1.0645,1.0663,1.0695,1.0709,1.069,1.0686,1.0715,1.0716,1.0739,1.0739,1.0739,1.0739,0,0.9728,0.9796,0.9862,0.9959,0.9984,1.0016,1.01,1.0137,1.0192,1.0252,1.0271,1.0358,1.0427,1.0501,1.0595,1.0631,1.0689,1.0709,1.0663,1.0671,1.0678,1.0676,1.069,1.0696,1.0722,1.0722,1.0722,0,0.9722,0.9755,0.9855,0.989,0.9934,0.9991,1.0033,1.0108,1.015,1.0239,1.0266,1.0339,1.0401,1.0508,1.0581,1.0654,1.0676,1.0676,1.0688,1.0667,1.0677,1.0674,1.0678,1.0672,1.0671,1.0671,1.067,0,0.9704,0.9737,0.9795,0.9866,0.9915,0.9974,1.0037,1.0063,1.015,1.0195,1.0265,1.0312,1.0408,1.048,1.0562,1.0613,1.0657,1.0666,1.0673,1.0653,1.0625,1.0641,1.0653,1.0665,1.0666,1.0666,1.0667,1.0667,0.968,0.9713,0.9788,0.9852,0.9907,0.9964,1.0004,1.0064,1.0123,1.0205,1.0246,1.0315,1.0393,1.0507,1.0556,1.0614,1.0627,1.0637,1.0639,1.064,1.0635,1.0616,1.0629,1.0629,1.063,1.063,1.063,0,0.9666,0.9718,0.9775,0.986,0.9911,0.9946,1.0018,1.0058,1.0118,1.0186,1.0245,1.0326,1.0397,1.0476,1.0552,1.0583,1.0605,1.06,1.0599,1.061,1.0619,1.0605,1.0581,1.0581,1.0581,1.0581,1.0581,1.0581,0.9664,0.9722,0.9764,0.985,0.9903,0.997,1.0008,1.0062,1.0116,1.0203,1.0262,1.0312,1.0386,1.0467,1.0534,1.0556,1.0582,1.0571,1.0599,1.0605,1.0609,1.0613,1.0601,1.0576,1.0576,1.0585,1.0585,1.0585]},{"header":{"parameterUnit":"m.s-1","parameterCategory":1,"la1":30.2991,"la2":30.254,"lo1":-89.0895,"lo2":-89.0444,"dy":0.0017,"dx":0.0017,"nx":28,"ny":28,"refTime":"2025-06-19T09:00:00:Z","depth":0,"parameterNumber":3,"parameterNumberName":"V-component_of_WINDS"},"data":[0,0,0,0,0,0,0,0,0,0,0,0,0,0,0,0,0,0,0,0,0,0,0,0,0,0,0,0,0,0,0,0,0,0,0,0,0,0,0,0,0,0,0,0,0,0,0,0,0,0,0,0,0,0,0,0,0,0,4.1312,4.1312,0,4.1283,4.1283,4.1283,4.1273,4.1273,4.1273,4.1274,4.1239,4.1238,4.1237,0,0,0,0,0,0,0,0,0,0,0,0,0,4.1354,4.1354,4.1312,4.1312,4.1311,4.1283,4.1283,4.1282,4.1273,4.1273,4.1273,4.1274,4.1239,4.1238,4.1237,0,0,0,0,0,0,0,0,0,0,0,0,0,4.1332,4.1353,4.1312,4.1303,4.1302,4.1283,4.1283,4.1282,4.1273,4.1273,4.1274,4.1274,4.124,4.1238,4.1237,4.1223,0,0,4.1232,4.1231,0,0,0,0,0,0,0,0,4.1333,4.133,4.1305,4.1304,4.1303,4.1282,4.1285,4.1262,4.1273,4.1284,4.1274,4.1274,4.1253,4.125,4.1244,4.1221,4.122,4.1232,4.1231,4.123,4.123,0,0,0,0,0,0,0,4.1334,4.1331,4.1301,4.1305,4.1303,4.1299,4.1296,4.1281,4.1267,4.1283,4.1282,4.1279,4.1252,4.1246,4.1243,4.1219,4.1232,4.123,4.123,4.1229,4.1182,4.1182,0,0,0,0,0,0,4.1338,4.1333,4.1301,4.13,4.1319,4.1298,4.1295,4.1288,4.1268,4.1265,4.1279,4.1279,4.1248,4.1245,4.1242,4.1224,4.123,4.1229,4.1228,4.1182,4.1182,4.1182,0,0,0,0,0,0,4.1339,4.1336,4.1303,4.1316,4.1312,4.1298,4.129,4.1288,4.1281,4.1265,4.1262,4.1275,4.1248,4.1244,4.1228,4.1223,4.1228,4.1227,4.1183,4.1182,4.1182,4.1188,0,0,0,0,0,0,4.134,4.1336,4.1332,4.1316,4.1311,4.129,4.129,4.1287,4.1279,4.1279,4.126,4.1257,4.1248,4.123,4.1226,4.122,4.1225,4.1183,4.1182,4.1182,4.1188,4.1188,4.1187,0,0,0,0,0,4.1342,4.1334,4.1332,4.1328,4.1306,4.129,4.1287,4.1278,4.1279,4.1274,4.1263,4.1258,4.1224,4.1229,4.1224,4.1218,4.1183,4.1183,4.1182,4.1188,4.1188,4.1187,0,0,0,0,0,0,4.1348,4.1332,4.1329,4.1316,4.1305,4.1289,4.1282,4.1278,4.1265,4.1265,4.1253,4.1249,4.1233,4.1223,4.1229,4.1202,4.1203,4.1201,4.1209,4.1209,4.1208,4.1211,4.1224,0,0,0,0,0,4.1348,4.1338,4.1324,4.1313,4.1308,4.1296,4.1289,4.1283,4.127,4.1265,4.1253,4.124,4.1226,4.1217,4.1203,4.1186,4.1181,4.118,4.1179,4.1179,4.1178,4.1167,4.1166,4.1179,4.1179,4.1179,0,0,4.1347,4.1337,4.1331,4.1314,4.1305,4.1294,4.1292,4.128,4.1272,4.1263,4.1247,4.1237,4.1221,4.1205,4.1197,4.1196,4.1173,4.1178,4.1178,4.1177,4.1166,4.1165,4.1164,4.1179,4.1179,4.1179,0,0,4.134,4.1332,4.1323,4.1313,4.13,4.1292,4.1289,4.1274,4.1268,4.1252,4.1245,4.1233,4.121,4.1199,4.119,4.1178,4.1172,4.1174,4.1172,4.1161,4.116,4.1159,4.1154,4.1153,4.1172,4.1172,4.1172,0,4.1341,4.1326,4.1318,4.1307,4.1299,4.1292,4.1281,4.1272,4.1254,4.1247,4.1248,4.1218,4.1207,4.1187,4.1184,4.1177,4.1173,4.1176,4.1162,4.116,4.1159,4.1154,4.1153,4.1173,4.1172,4.1172,4.1172,0,4.1327,4.1316,4.1309,4.1294,4.1285,4.1274,4.1263,4.1254,4.1249,4.124,4.1223,4.121,4.1193,4.1187,4.1181,4.1166,4.1166,4.1164,4.1165,4.1158,4.1154,4.1152,4.1173,4.1173,4.1173,4.1173,0,0,4.1323,4.1303,4.1301,4.1293,4.1278,4.1268,4.1256,4.1241,4.1234,4.1221,4.121,4.119,4.1188,4.1178,4.117,4.1161,4.1152,4.116,4.1159,4.1159,4.1133,4.1135,4.1133,4.1148,4.1148,4.1148,4.1134,0,4.1314,4.1294,4.1286,4.1269,4.1259,4.1251,4.124,4.1229,4.122,4.1208,4.1198,4.1184,4.1182,4.1176,4.1167,4.1155,4.1147,4.1156,4.1136,4.1135,4.114,4.113,4.1132,4.112,4.1132,4.1132,4.1132,0,4.1301,4.129,4.1272,4.1257,4.1253,4.1243,4.1229,4.1218,4.1203,4.1198,4.1186,4.1179,4.1164,4.1166,4.1144,4.1151,4.1142,4.1134,4.1134,4.1131,4.1133,4.1127,4.1116,4.1114,4.1129,4.1129,4.1129,0,4.1299,4.128,4.1267,4.1261,4.1243,4.1237,4.1228,4.1215,4.1206,4.1192,4.1186,4.117,4.1161,4.1148,4.1136,4.1139,4.1115,4.1116,4.1108,4.1109,4.1104,4.1104,4.1091,4.1099,4.1099,4.1099,4.1099,0,4.129,4.1279,4.1266,4.1258,4.1245,4.1235,4.1223,4.1214,4.1201,4.119,4.1182,4.1171,4.1156,4.1143,4.1133,4.1116,4.1112,4.1105,4.1103,4.1106,4.1107,4.11,4.11,4.1098,4.1098,4.1098,4.1099,0,4.1286,4.1277,4.1262,4.1247,4.1243,4.1234,4.122,4.1211,4.1202,4.1188,4.1184,4.1169,4.1152,4.1139,4.1117,4.1111,4.1093,4.109,4.1098,4.1097,4.109,4.1091,4.1072,4.1068,4.1079,4.1079,4.1079,0,4.1281,4.1273,4.1257,4.125,4.1242,4.1231,4.1222,4.1211,4.1202,4.1185,4.1177,4.1161,4.1148,4.1121,4.1107,4.109,4.1087,4.1081,4.1084,4.1087,4.1086,4.1086,4.1085,4.1081,4.1081,4.1081,4.1081,0,4.1272,4.1268,4.1257,4.1244,4.1234,4.1223,4.1211,4.1205,4.1192,4.1182,4.1166,4.1156,4.1134,4.1117,4.1099,4.1088,4.1081,4.108,4.1077,4.108,4.1085,4.1082,4.1097,4.108,4.108,4.108,4.108,4.108,4.1267,4.1259,4.1247,4.1235,4.1225,4.1214,4.1205,4.1195,4.1182,4.1165,4.1159,4.1143,4.1127,4.1102,4.1091,4.1076,4.1076,4.1072,4.1071,4.107,4.107,4.1088,4.1073,4.1073,4.1073,4.1073,4.1073,0,4.1258,4.1249,4.1238,4.1223,4.1212,4.1209,4.1196,4.1187,4.1173,4.116,4.1147,4.1128,4.1111,4.1096,4.1078,4.1069,4.1066,4.1065,4.1065,4.1063,4.1072,4.1076,4.1068,4.1068,4.1068,4.1068,4.1068,4.1068,4.1251,4.1238,4.1232,4.1213,4.1205,4.119,4.1183,4.1172,4.1161,4.1141,4.1128,4.1119,4.1104,4.1085,4.1069,4.1065,4.1058,4.1058,4.1053,4.1062,4.1062,4.1063,4.1067,4.1057,4.1057,4.1045,4.1044,4.1044]}]]